Weather History for Geneva, Switzerland

Change the Weather History Date:

Tuesday, November 29, 2011

  Actual Average Record
Temperature  
Mean Temperature 44 °F -  
Max Temperature 56 °F 40 °F 57 °F (2011)
Min Temperature 32 °F 30 °F 21 °F (2010)
Degree Days  
Heating Degree Days 21    
Moisture  
Dew Point 37 °F    
Average Humidity 76    
Maximum Humidity 100    
Minimum Humidity 34    
Precipitation  
Precipitation 0.00 in 0.11 in - ()
Sea Level Pressure  
Sea Level Pressure 30.23 in    
Wind  
Wind Speed 3 mph ()    
Max Wind Speed 14 mph    
Max Gust Speed 84 mph    
Visibility 4.8 miles    
Events Fog    
Averages and records for this station are not official NWS values.
T = Trace of Precipitation, MM = Missing Value Source: Averaged Metar Reports

Daily Weather History Graph

Daily Weather History Graph

Search for Another Location

Airport:

Trip Planner

Search our weather history database for the weather conditions in past years. The results will help you decide how hot, cold, wet, or windy it might be!

Date:

Astronomy

Nov. 29, 2011 Rise Set
Actual Time 7:54 AM CET 4:52 PM CET
Civil Twilight 7:20 AM CET 5:26 PM CET
Nautical Twilight 6:43 AM CET 6:03 PM CET
Astronomical Twilight 6:07 AM CET 6:39 PM CET
Moon 11:27 AM CET (11/29) 9:34 PM CET (11/29)
Length of Visible Light 10h 05m
Length of Day
8h 57m
Waxing Crescent, 22% of the Moon is Illuminated
Nov 29
Waxing Crescent
Dec 2
First Quarter
Dec 10
Full
Dec 18
Last Quarter
Dec 24
New

Hourly Weather History & Observations

Time (CET) Temp. Windchill Dew Point Humidity Pressure Visibility Wind Dir Wind Speed Gust Speed Precip Events Conditions
12:00 AM 38 °F - 36 °F 92% 30.33 in - NNW 1.2 mph - -  
12:20 AM 37.4 °F - 35.6 °F 93% 30.27 in 4.3 mi Calm Calm - N/A   Mostly Cloudy
12:50 AM 37.4 °F - 35.6 °F 93% 30.27 in 4.3 mi Calm Calm - N/A   Mostly Cloudy
1:00 AM 36 °F - 35 °F 97% 30.33 in 4 mi Calm Calm - -   Mist
1:20 AM 35.6 °F - 33.8 °F 93% 30.27 in 3.7 mi Calm Calm - N/A   Scattered Clouds
1:50 AM 35.6 °F - 33.8 °F 93% 30.27 in 3.7 mi WSW 1.2 mph - N/A   Scattered Clouds
2:00 AM 35 °F - 34 °F 94% 30.32 in - West 1.2 mph - -  
2:50 AM 33.8 °F - 33.8 °F 100% 30.27 in 3.1 mi Variable 1.2 mph - N/A   Mist
3:00 AM 33 °F - 32 °F 94% 30.33 in - WNW 1.2 mph - -  
3:20 AM 33.8 °F - 33.8 °F 100% 30.24 in 3.1 mi Variable 1.2 mph - N/A   Mist
3:50 AM 33.8 °F - 32.0 °F 93% 30.24 in 3.1 mi Variable 2.3 mph - N/A   Mist
4:20 AM 33.8 °F - 33.8 °F 100% 30.24 in 3.1 mi Variable 1.2 mph - N/A   Mist
4:50 AM 33.8 °F - 32.0 °F 93% 30.24 in 3.1 mi Variable 1.2 mph - N/A   Mist
5:00 AM 34 °F - 33 °F 95% 30.31 in - Calm Calm - -  
5:20 AM 33.8 °F - 33.8 °F 100% 30.24 in 3.1 mi Variable 1.2 mph - N/A   Mist
5:50 AM 33.8 °F - 32.0 °F 93% 30.24 in 2.8 mi Variable 1.2 mph - N/A   Mist
6:00 AM 34 °F - 33 °F 92% 30.30 in - WSW 2.3 mph - -  
6:20 AM 33.8 °F - 32.0 °F 93% 30.24 in - Variable 1.2 mph - N/A   Mist
6:50 AM 33.8 °F - 33.8 °F 100% 30.21 in 3.1 mi West 2.3 mph - N/A   Mist
7:00 AM 35 °F - 33 °F 92% 30.29 in 3 mi WNW 3.5 mph - -   Mist
7:20 AM 35.6 °F - 33.8 °F 93% 30.21 in 3.1 mi WSW 2.3 mph - N/A   Mist
7:50 AM 33.8 °F - 33.8 °F 100% 30.21 in 2.2 mi WNW 2.3 mph - N/A Fog Fog
8:00 AM 35 °F - 34 °F 93% 30.29 in - West 3.5 mph - -  
8:20 AM 35.6 °F 32.8 °F 33.8 °F 93% 30.21 in 2.2 mi SW 3.5 mph - N/A Fog Fog
8:50 AM 35.6 °F - 33.8 °F 93% 30.24 in - North 2.3 mph - N/A Fog Fog
9:00 AM 36 °F - 35 °F 92% 30.30 in - North 1.2 mph - -  
9:20 AM 37.4 °F 28.9 °F 35.6 °F 93% 30.24 in - NNW 13.8 mph 84.0 mph N/A Fog Fog
9:29 AM 37.4 °F - 35.6 °F 93% 30.24 in - West 1.2 mph - N/A Fog Fog
9:50 AM 39.2 °F - 35.6 °F 87% 30.24 in - Variable 1.2 mph - N/A   Mist
10:20 AM 44.6 °F - 37.4 °F 76% 30.24 in 5.0 mi Variable 1.2 mph - N/A   Unknown
10:50 AM 42.8 °F - 35.6 °F 76% 30.24 in 5.6 mi Variable 1.2 mph - N/A   Unknown
11:00 AM 44 °F - 35 °F 61% 30.27 in - South 2.3 mph - -  
11:20 AM 46.4 °F - 35.6 °F 66% 30.21 in - Variable 2.3 mph - N/A   Clear
11:50 AM 48.2 °F - 37.4 °F 66% 30.21 in - Variable 2.3 mph - N/A   Clear
12:00 PM 48 °F - 33 °F 44% 30.23 in - SW 3.5 mph - -  
12:20 PM 50.0 °F - 35.6 °F 58% 30.18 in - Variable 3.5 mph - N/A   Clear
12:50 PM 51.8 °F - 35.6 °F 54% 30.18 in - SW 3.5 mph - N/A   Clear
12:57 PM 53.6 °F - 37.4 °F 54% 30.18 in - Variable 2.3 mph - N/A   Clear
1:00 PM 52 °F - 35 °F 40% 30.20 in 11 mi WNW 2.3 mph - -   Partly Cloudy
1:20 PM 53.6 °F - 37.4 °F 54% 30.18 in - SSW 4.6 mph - N/A   Clear
1:50 PM 55.4 °F - 37.4 °F 51% 30.15 in - SSW 4.6 mph - N/A   Clear
2:00 PM 54 °F - 35 °F 36% 30.17 in - SW 8.1 mph - -  
2:20 PM 55.4 °F - 35.6 °F 47% 30.15 in - SSW 9.2 mph - N/A   Clear
2:50 PM 55.4 °F - 35.6 °F 47% 30.15 in - SSW 8.1 mph - N/A   Clear
3:00 PM 56 °F - 36 °F 34% 30.16 in - SW 6.9 mph - -  
3:20 PM 57.2 °F - 39.2 °F 51% 30.15 in - SW 8.1 mph - N/A   Clear
3:50 PM 57.2 °F - 39.2 °F 51% 30.15 in - SW 9.2 mph - N/A   Clear
4:20 PM 55.4 °F - 39.2 °F 54% 30.18 in - SW 10.4 mph - N/A   Clear
4:50 PM 53.6 °F - 39.2 °F 58% 30.18 in 6.2 mi SSW 10.4 mph - N/A   Partly Cloudy
5:00 PM 53 °F - 38 °F 45% 30.19 in - SW 9.2 mph - -  
5:20 PM 51.8 °F - 39.2 °F 62% 30.18 in 6.2 mi SW 8.1 mph - N/A   Partly Cloudy
5:50 PM 51.8 °F - 39.2 °F 62% 30.21 in 6.2 mi SSW 8.1 mph - N/A   Partly Cloudy
6:00 PM 51 °F - 39 °F 53% 30.22 in - SSW 9.2 mph - -  
6:20 PM 51.8 °F - 41.0 °F 67% 30.21 in 6.2 mi SSW 9.2 mph - N/A   Partly Cloudy
6:50 PM 48.2 °F - 41.0 °F 76% 30.21 in 6.2 mi SW 9.2 mph - N/A   Partly Cloudy
7:00 PM 49 °F - 40 °F 62% 30.25 in 25 mi SSW 8.1 mph - -   Scattered Clouds
7:20 PM 48.2 °F - 41.0 °F 76% 30.24 in 6.2 mi SSW 9.2 mph - N/A   Partly Cloudy
7:50 PM 50.0 °F - 41.0 °F 71% 30.24 in 6.2 mi SW 11.5 mph - N/A   Mostly Cloudy
8:00 PM 51 °F - 41 °F 60% 30.26 in - SW 11.5 mph - -  
8:20 PM 51.8 °F - 42.8 °F 71% 30.24 in 6.2 mi SW 6.9 mph - N/A   Mostly Cloudy
8:50 PM 48.2 °F - 41.0 °F 76% 30.24 in 6.2 mi West 5.8 mph - N/A   Mostly Cloudy
9:00 PM 47 °F - 40 °F 71% 30.28 in - WSW 5.8 mph - -  
9:20 PM 46.4 °F 45.2 °F 41.0 °F 81% 30.24 in 6.2 mi SSW 3.5 mph - N/A   Mostly Cloudy
9:50 PM 46.4 °F 43.5 °F 41.0 °F 81% 30.27 in 6.2 mi SW 5.8 mph - N/A   Mostly Cloudy
10:20 PM 46.4 °F 45.2 °F 41.0 °F 81% 30.24 in 6.2 mi West 3.5 mph - N/A   Mostly Cloudy
10:50 PM 46.4 °F - 41.0 °F 81% 30.24 in 6.2 mi Variable 1.2 mph - N/A   Mostly Cloudy
11:00 PM 45 °F - 40 °F 78% 30.30 in - North 3.5 mph - -  
11:20 PM 44.6 °F - 39.2 °F 81% 30.27 in 6.2 mi Calm Calm - N/A   Mostly Cloudy
11:50 PM 42.8 °F - 39.2 °F 87% 30.27 in 6.2 mi Variable 1.2 mph - N/A   Mostly Cloudy